Time,TemperatureF,DewpointF,PressureIn,WindDirection,WindDirectionDegrees,WindSpeedMPH,WindSpeedGustMPH,Humidity,HourlyPrecipIn,Conditions,Clouds,dailyrainin,SoftwareType,DateUTC
2013-05-21 00:12:00,72.0,70.0,30.08,SSE,163,5.0,7.0,93,0.00,,,0.00,weatherlink.com 1.10,2013-05-21 04:12:00,
2013-05-21 00:27:00,71.9,70.0,30.08,SSW,199,6.0,7.0,93,0.00,,,0.00,weatherlink.com 1.10,2013-05-21 04:27:00,
2013-05-21 00:42:00,72.1,70.0,30.07,SSW,210,6.0,6.0,93,0.00,,,0.00,weatherlink.com 1.10,2013-05-21 04:42:00,
2013-05-21 00:57:00,72.2,70.0,30.08,SW,215,9.0,9.0,93,0.00,,,0.00,weatherlink.com 1.10,2013-05-21 04:57:00,
2013-05-21 01:12:00,72.2,70.0,30.07,South,185,6.0,9.0,93,0.00,,,0.00,weatherlink.com 1.10,2013-05-21 05:12:00,
2013-05-21 01:27:00,72.0,70.0,30.07,SSW,198,6.0,8.0,93,0.00,,,0.00,weatherlink.com 1.10,2013-05-21 05:27:00,
2013-05-21 01:42:00,71.9,70.0,30.06,SSW,210,6.0,9.0,94,0.00,,,0.00,weatherlink.com 1.10,2013-05-21 05:42:00,
2013-05-21 01:57:00,71.9,70.0,30.06,SW,218,6.0,9.0,93,0.00,,,0.00,weatherlink.com 1.10,2013-05-21 05:57:00,
2013-05-21 02:12:00,71.8,70.0,30.05,SSW,211,7.0,9.0,93,0.00,,,0.00,weatherlink.com 1.10,2013-05-21 06:12:00,
2013-05-21 02:27:00,72.0,70.0,30.05,South,191,5.0,8.0,94,0.00,,,0.00,weatherlink.com 1.10,2013-05-21 06:27:00,
2013-05-21 02:42:00,71.8,70.0,30.05,SSW,198,5.0,7.0,94,0.00,,,0.00,weatherlink.com 1.10,2013-05-21 06:42:00,
2013-05-21 02:57:00,71.7,70.0,30.05,SSW,197,5.0,7.0,94,0.00,,,0.00,weatherlink.com 1.10,2013-05-21 06:57:00,
2013-05-21 03:12:00,71.8,70.0,30.05,SSW,211,6.0,9.0,94,0.00,,,0.00,weatherlink.com 1.10,2013-05-21 07:12:00,
2013-05-21 03:27:00,71.8,70.0,30.05,SSW,200,7.0,8.0,94,0.00,,,0.00,weatherlink.com 1.10,2013-05-21 07:27:00,
2013-05-21 03:42:00,71.7,70.0,30.05,SSW,197,5.0,7.0,94,0.00,,,0.00,weatherlink.com 1.10,2013-05-21 07:42:00,
2013-05-21 03:57:00,71.7,70.0,30.05,SSW,194,5.0,7.0,94,0.00,,,0.00,weatherlink.com 1.10,2013-05-21 07:57:00,
2013-05-21 04:12:00,71.8,70.0,30.05,SW,218,5.0,8.0,94,0.00,,,0.00,weatherlink.com 1.10,2013-05-21 08:12:00,
2013-05-21 04:27:00,71.9,71.0,30.05,SSW,211,5.0,7.0,95,0.00,,,0.00,weatherlink.com 1.10,2013-05-21 08:27:00,
2013-05-21 04:42:00,71.8,70.0,30.05,SSW,204,4.0,7.0,94,0.00,,,0.00,weatherlink.com 1.10,2013-05-21 08:42:00,
2013-05-21 04:57:00,71.7,70.0,30.05,SW,217,6.0,7.0,95,0.00,,,0.00,weatherlink.com 1.10,2013-05-21 08:57:00,
2013-05-21 05:12:00,71.7,70.0,30.05,SSW,200,7.0,7.0,95,0.00,,,0.00,weatherlink.com 1.10,2013-05-21 09:12:00,
2013-05-21 05:27:00,71.7,70.0,30.05,SW,217,7.0,7.0,95,0.00,,,0.00,weatherlink.com 1.10,2013-05-21 09:27:00,
2013-05-21 05:42:00,71.9,71.0,30.06,SSW,205,4.0,6.0,95,0.00,,,0.00,weatherlink.com 1.10,2013-05-21 09:42:00,
2013-05-21 05:57:00,71.8,70.0,30.06,SW,215,3.0,6.0,94,0.00,,,0.00,weatherlink.com 1.10,2013-05-21 09:57:00,
2013-05-21 06:12:00,71.9,70.0,30.07,SSW,211,4.0,7.0,94,0.00,,,0.00,weatherlink.com 1.10,2013-05-21 10:12:00,
2013-05-21 06:28:00,72.2,70.0,30.07,SSW,201,3.0,6.0,94,0.00,,,0.00,weatherlink.com 1.10,2013-05-21 10:28:00,
2013-05-21 06:43:00,72.3,71.0,30.07,SW,215,5.0,6.0,94,0.00,,,0.00,weatherlink.com 1.10,2013-05-21 10:43:00,
2013-05-21 06:58:00,72.6,71.0,30.07,SSW,208,5.0,7.0,94,0.00,,,0.00,weatherlink.com 1.10,2013-05-21 10:58:00,
2013-05-21 07:13:00,73.1,71.0,30.08,WSW,239,5.0,6.0,93,0.00,,,0.00,weatherlink.com 1.10,2013-05-21 11:13:00,
2013-05-21 07:28:00,73.6,71.0,30.08,SW,232,4.0,5.0,92,0.00,,,0.00,weatherlink.com 1.10,2013-05-21 11:28:00,
2013-05-21 07:43:00,74.1,72.0,30.08,SW,233,5.0,6.0,92,0.00,,,0.00,weatherlink.com 1.10,2013-05-21 11:43:00,
2013-05-21 07:58:00,74.5,72.0,30.08,SW,223,4.0,6.0,91,0.00,,,0.00,weatherlink.com 1.10,2013-05-21 11:58:00,
2013-05-21 08:13:00,75.1,72.0,30.08,SW,225,4.0,5.0,90,0.00,,,0.00,weatherlink.com 1.10,2013-05-21 12:13:00,
2013-05-21 08:28:00,75.9,72.0,30.08,SSW,200,5.0,7.0,88,0.00,,,0.00,weatherlink.com 1.10,2013-05-21 12:28:00,
2013-05-21 08:43:00,76.4,72.0,30.08,SW,232,6.0,7.0,86,0.00,,,0.00,weatherlink.com 1.10,2013-05-21 12:43:00,
2013-05-21 08:58:00,76.8,72.0,30.09,WSW,238,6.0,10.0,86,0.00,,,0.00,weatherlink.com 1.10,2013-05-21 12:58:00,
2013-05-21 09:13:00,76.6,72.0,30.09,SW,215,6.0,9.0,85,0.00,,,0.00,weatherlink.com 1.10,2013-05-21 13:13:00,
2013-05-21 09:28:00,77.0,72.0,30.09,SW,229,10.0,10.0,83,0.00,,,0.00,weatherlink.com 1.10,2013-05-21 13:28:00,
2013-05-21 09:43:00,77.2,71.0,30.08,SW,219,5.0,10.0,81,0.00,,,0.00,weatherlink.com 1.10,2013-05-21 13:43:00,
2013-05-21 09:58:00,78.2,72.0,30.08,SW,217,5.0,6.0,81,0.00,,,0.00,weatherlink.com 1.10,2013-05-21 13:58:00,
2013-05-21 10:13:00,78.2,72.0,30.09,SW,221,9.0,11.0,80,0.00,,,0.00,weatherlink.com 1.10,2013-05-21 14:13:00,
2013-05-21 10:28:00,77.7,72.0,30.08,SSW,204,9.0,11.0,82,0.00,,,0.00,weatherlink.com 1.10,2013-05-21 14:28:00,
2013-05-21 10:43:00,77.9,72.0,30.08,SSW,196,9.0,11.0,81,0.00,,,0.00,weatherlink.com 1.10,2013-05-21 14:43:00,
2013-05-21 10:58:00,78.1,72.0,30.08,SSW,207,10.0,13.0,81,0.00,,,0.00,weatherlink.com 1.10,2013-05-21 14:58:00,
2013-05-21 11:13:00,78.1,72.0,30.08,SSW,207,10.0,13.0,81,0.00,,,0.00,weatherlink.com 1.10,2013-05-21 15:13:00,
2013-05-21 11:28:00,78.2,72.0,30.07,South,187,11.0,16.0,81,0.00,,,0.00,weatherlink.com 1.10,2013-05-21 15:28:00,
2013-05-21 11:43:00,78.3,71.0,30.07,WSW,246,9.0,14.0,79,0.00,,,0.00,weatherlink.com 1.10,2013-05-21 15:43:00,
2013-05-21 11:58:00,78.6,72.0,30.07,SSW,210,8.0,12.0,80,0.00,,,0.00,weatherlink.com 1.10,2013-05-21 15:58:00,
2013-05-21 12:13:00,78.8,71.0,30.06,SW,229,14.0,15.0,77,0.00,,,0.00,weatherlink.com 1.10,2013-05-21 16:13:00,
2013-05-21 12:28:00,78.9,72.0,30.06,SSW,195,11.0,15.0,78,0.00,,,0.00,weatherlink.com 1.10,2013-05-21 16:28:00,
2013-05-21 12:43:00,78.8,72.0,30.07,SW,218,11.0,14.0,79,0.00,,,0.00,weatherlink.com 1.10,2013-05-21 16:43:00,
2013-05-21 12:58:00,78.6,71.0,30.06,SW,236,12.0,14.0,78,0.00,,,0.00,weatherlink.com 1.10,2013-05-21 16:58:00,
2013-05-21 13:13:00,78.6,72.0,30.06,SSW,213,13.0,16.0,79,0.00,,,0.00,weatherlink.com 1.10,2013-05-21 17:13:00,
2013-05-21 13:28:00,78.4,71.0,30.06,South,191,16.0,17.0,78,0.00,,,0.00,weatherlink.com 1.10,2013-05-21 17:28:00,
2013-05-21 13:43:00,78.5,72.0,30.06,SSW,201,11.0,18.0,79,0.00,,,0.00,weatherlink.com 1.10,2013-05-21 17:43:00,
2013-05-21 13:58:00,78.3,71.0,30.05,SW,215,11.0,18.0,77,0.00,,,0.00,weatherlink.com 1.10,2013-05-21 17:58:00,
2013-05-21 14:13:00,77.9,71.0,30.05,SSW,212,11.0,18.0,79,0.00,,,0.00,weatherlink.com 1.10,2013-05-21 18:13:00,
2013-05-21 14:28:00,77.9,71.0,30.05,SSW,201,11.0,16.0,79,0.00,,,0.00,weatherlink.com 1.10,2013-05-21 18:28:00,
2013-05-21 14:43:00,78.5,71.0,30.04,SSW,205,10.0,16.0,77,0.00,,,0.00,weatherlink.com 1.10,2013-05-21 18:43:00,
2013-05-21 14:58:00,78.7,71.0,30.04,SSW,195,12.0,17.0,77,0.00,,,0.00,weatherlink.com 1.10,2013-05-21 18:58:00,
2013-05-21 15:13:00,78.8,70.0,30.04,SW,214,15.0,17.0,75,0.00,,,0.00,weatherlink.com 1.10,2013-05-21 19:13:00,
2013-05-21 15:28:00,79.1,71.0,30.03,SW,215,12.0,16.0,75,0.00,,,0.00,weatherlink.com 1.10,2013-05-21 19:28:00,
2013-05-21 15:43:00,78.8,71.0,30.02,SW,218,16.0,20.0,76,0.00,,,0.00,weatherlink.com 1.10,2013-05-21 19:43:00,
2013-05-21 15:59:00,78.2,70.0,30.02,SW,217,14.0,21.0,76,0.00,,,0.00,weatherlink.com 1.10,2013-05-21 19:59:00,
2013-05-21 16:14:00,77.6,70.0,30.02,SSW,200,14.0,19.0,77,0.00,,,0.00,weatherlink.com 1.10,2013-05-21 20:14:00,
2013-05-21 16:29:00,77.0,70.0,30.02,SSW,198,13.0,16.0,79,0.00,,,0.00,weatherlink.com 1.10,2013-05-21 20:29:00,
2013-05-21 16:44:00,77.2,71.0,30.02,SSW,210,13.0,14.0,82,0.00,,,0.00,weatherlink.com 1.10,2013-05-21 20:44:00,
2013-05-21 16:59:00,77.6,71.0,30.02,SW,231,13.0,20.0,79,0.00,,,0.00,weatherlink.com 1.10,2013-05-21 20:59:00,
2013-05-21 17:14:00,77.3,71.0,30.02,WSW,238,17.0,19.0,80,0.00,,,0.00,weatherlink.com 1.10,2013-05-21 21:14:00,
2013-05-21 17:29:00,76.9,71.0,30.02,SSW,210,17.0,18.0,81,0.00,,,0.00,weatherlink.com 1.10,2013-05-21 21:29:00,
2013-05-21 17:44:00,76.3,70.0,30.02,SSW,209,11.0,16.0,82,0.00,,,0.00,weatherlink.com 1.10,2013-05-21 21:44:00,
2013-05-21 17:59:00,76.1,71.0,30.02,SSW,208,11.0,13.0,83,0.00,,,0.00,weatherlink.com 1.10,2013-05-21 21:59:00,
2013-05-21 18:14:00,75.9,70.0,30.02,SSW,194,10.0,14.0,83,0.00,,,0.00,weatherlink.com 1.10,2013-05-21 22:14:00,
2013-05-21 18:29:00,75.8,71.0,30.02,SSW,210,9.0,13.0,84,0.00,,,0.00,weatherlink.com 1.10,2013-05-21 22:29:00,
2013-05-21 18:44:00,75.5,70.0,30.02,SW,214,12.0,14.0,84,0.00,,,0.00,weatherlink.com 1.10,2013-05-21 22:44:00,
2013-05-21 18:59:00,75.5,71.0,30.02,WSW,238,11.0,15.0,85,0.00,,,0.00,weatherlink.com 1.10,2013-05-21 22:59:00,
2013-05-21 19:14:00,75.1,71.0,30.03,SW,226,8.0,15.0,87,0.00,,,0.00,weatherlink.com 1.10,2013-05-21 23:14:00,
2013-05-21 19:29:00,74.8,71.0,30.03,SW,226,10.0,14.0,87,0.00,,,0.00,weatherlink.com 1.10,2013-05-21 23:29:00,
2013-05-21 19:44:00,74.5,71.0,30.03,SW,215,9.0,12.0,89,0.00,,,0.00,weatherlink.com 1.10,2013-05-21 23:44:00,
2013-05-21 19:59:00,74.4,71.0,30.03,SSW,198,8.0,13.0,89,0.00,,,0.00,weatherlink.com 1.10,2013-05-21 23:59:00,
2013-05-21 20:14:00,74.2,71.0,30.02,SSW,203,7.0,15.0,90,0.00,,,0.00,weatherlink.com 1.10,2013-05-22 00:14:00,
2013-05-21 20:29:00,74.0,71.0,30.02,SSW,201,9.0,14.0,91,0.00,,,0.00,weatherlink.com 1.10,2013-05-22 00:29:00,
2013-05-21 20:44:00,73.8,71.0,30.01,SSW,210,9.0,15.0,91,0.00,,,0.00,weatherlink.com 1.10,2013-05-22 00:44:00,
2013-05-21 20:59:00,73.8,71.0,30.01,SSW,207,10.0,16.0,92,0.00,,,0.00,weatherlink.com 1.10,2013-05-22 00:59:00,
2013-05-21 21:14:00,73.6,71.0,30.02,SSW,204,8.0,14.0,92,0.00,,,0.00,weatherlink.com 1.10,2013-05-22 01:14:00,
2013-05-21 21:29:00,73.3,71.0,30.02,SSW,210,12.0,14.0,92,0.00,,,0.00,weatherlink.com 1.10,2013-05-22 01:29:00,
2013-05-21 21:44:00,73.5,71.0,30.02,SSW,208,10.0,11.0,92,0.00,,,0.00,weatherlink.com 1.10,2013-05-22 01:44:00,
2013-05-21 21:59:00,73.3,71.0,30.03,SSW,200,12.0,13.0,91,0.00,,,0.00,weatherlink.com 1.10,2013-05-22 01:59:00,
2013-05-21 22:14:00,73.2,71.0,30.03,SW,218,12.0,13.0,91,0.00,,,0.00,weatherlink.com 1.10,2013-05-22 02:14:00,
2013-05-21 22:29:00,73.3,71.0,30.04,SW,217,9.0,12.0,92,0.00,,,0.00,weatherlink.com 1.10,2013-05-22 02:29:00,
2013-05-21 22:44:00,73.2,71.0,30.04,SW,215,10.0,12.0,92,0.00,,,0.00,weatherlink.com 1.10,2013-05-22 02:44:00,
2013-05-21 22:59:00,73.1,70.0,30.04,SSW,204,10.0,13.0,91,0.00,,,0.00,weatherlink.com 1.10,2013-05-22 02:59:00,
2013-05-21 23:14:00,73.0,71.0,30.03,SSW,205,10.0,12.0,92,0.00,,,0.00,weatherlink.com 1.10,2013-05-22 03:14:00,
2013-05-21 23:29:00,73.1,71.0,30.03,SSW,208,8.0,10.0,92,0.00,,,0.00,weatherlink.com 1.10,2013-05-22 03:29:00,
2013-05-21 23:44:00,73.2,71.0,30.04,SW,215,6.0,12.0,92,0.00,,,0.00,weatherlink.com 1.10,2013-05-22 03:44:00,
2013-05-21 23:59:00,73.3,71.0,30.04,SSW,209,10.0,12.0,91,0.00,,,0.00,weatherlink.com 1.10,2013-05-22 03:59:00,